Location: Champs
(48.8539°N, 2.6040°E)
Time: 12:06:50
(UTC+00:00)

Cosmos 1953 - Visible Passes

Search period start: 29 May 2022 00:00
Search period end: 08 June 2022 00:00
Orbit: 536 x 553 km, 82.5° (Epoch: 28 May)

Date Brightness Start Highest point End Pass type
(mag) Time Alt. Az. Time Alt. Az. Time Alt. Az.
29 May 3.9 01:04:29 10° NW 01:07:30 21° W 01:08:15 20° WSW visible
29 May 3.3 23:21:38 10° N 23:25:24 38° ENE 23:26:36 30° ESE visible
30 May 4.0 00:58:30 10° NW 01:01:27 20° W 01:02:12 19° WSW visible
30 May 3.2 23:15:34 10° N 23:19:21 39° ENE 23:20:34 31° ESE visible
31 May 4.0 00:52:31 10° NW 00:55:23 19° W 00:56:10 18° WSW visible
31 May 3.1 23:09:30 10° N 23:13:19 41° ENE 23:14:32 32° ESE visible
01 Jun 4.1 00:46:31 10° NW 00:49:19 19° W 00:50:08 17° WSW visible
01 Jun 3.1 23:03:26 10° N 23:07:16 42° ENE 23:08:30 32° ESE visible
02 Jun 4.2 00:40:32 10° NW 00:43:15 18° W 00:44:06 17° WSW visible
02 Jun 3.0 22:57:21 10° N 23:01:13 44° ENE 23:02:28 33° ESE visible
03 Jun 4.2 00:34:32 10° NW 00:37:10 17° W 00:38:04 16° WSW visible
03 Jun 2.9 22:51:16 10° N 22:55:09 46° ENE 22:56:27 33° SE visible
04 Jun 4.3 00:28:32 10° NW 00:31:04 16° W 00:32:03 15° WSW visible
04 Jun 2.8 22:45:12 10° N 22:49:05 48° ENE 22:50:26 33° SE visible
05 Jun 4.4 00:22:33 10° NW 00:24:59 16° W 00:26:02 14° WSW visible
05 Jun 2.7 22:39:06 10° N 22:43:00 50° ENE 22:44:25 33° SE visible
06 Jun 4.4 00:16:33 10° NW 00:18:53 15° W 00:20:01 14° WSW visible
06 Jun 2.7 22:33:00 10° N 22:36:55 53° ENE 22:38:25 33° SE visible
07 Jun 4.5 00:10:33 10° NW 00:12:46 15° W 00:14:01 13° WSW visible
07 Jun 2.6 22:26:54 10° N 22:30:49 55° ENE 22:32:25 32° SE visible
